MSR25 HESH-HECA

Flight info

Callsign MSR25
Flight time 0h 42m
Altitude 30000
Route SHM L677 CVO
Aircraft A20N/M-SDE2E3FGHIRWXY/LB1

Departure

Time 2026-05-05 19:47
Airport Sharm El Sheikh International Airport (HESH)

Arrival

Time 2026-05-05 20:30
Airport Cairo International Airport (HECA)
Time Latitude Longitude Altitude Speed Heading
2026-05-05 19:24 27.98153 34.39080 195 ft 0 kts 132°
2026-05-05 19:38 27.98152 34.39080 195 ft 0 kts 132°
2026-05-05 19:38 27.98161 34.39068 196 ft 2 kts 131°
2026-05-05 19:38 27.98172 34.39056 196 ft 2 kts 131°
2026-05-05 19:38 27.98185 34.39050 196 ft 2 kts 188°
2026-05-05 19:39 27.98198 34.39057 196 ft 2 kts 231°
2026-05-05 19:39 27.98208 34.39070 196 ft 2 kts 219°
2026-05-05 19:39 27.98219 34.39081 196 ft 1 kts 223°
2026-05-05 19:39 27.98221 34.39083 196 ft 0 kts 223°
2026-05-05 19:42 27.98220 34.39082 196 ft 0 kts 223°
2026-05-05 19:42 27.98197 34.39057 196 ft 7 kts 223°
2026-05-05 19:42 27.98143 34.39003 197 ft 11 kts 223°
2026-05-05 19:42 27.98086 34.38943 198 ft 10 kts 220°
2026-05-05 19:43 27.98036 34.38884 198 ft 10 kts 220°
2026-05-05 19:43 27.97967 34.38863 197 ft 12 kts 146°
2026-05-05 19:43 27.97891 34.38948 192 ft 17 kts 133°
2026-05-05 19:43 27.97795 34.38945 190 ft 17 kts 222°
2026-05-05 19:44 27.97697 34.38842 189 ft 21 kts 223°
2026-05-05 19:44 27.97577 34.38718 187 ft 24 kts 223°
2026-05-05 19:44 27.97453 34.38588 186 ft 24 kts 223°
2026-05-05 19:44 27.97333 34.38463 187 ft 22 kts 222°
2026-05-05 19:45 27.97217 34.38342 188 ft 21 kts 223°
2026-05-05 19:45 27.97107 34.38228 187 ft 18 kts 223°
2026-05-05 19:45 27.97020 34.38139 184 ft 17 kts 210°
2026-05-05 19:45 27.96908 34.38205 174 ft 22 kts 126°
2026-05-05 19:46 27.96919 34.38342 173 ft 14 kts 42°
2026-05-05 19:46 27.96946 34.38370 174 ft 0 kts 41°
2026-05-05 19:46 27.97113 34.38543 176 ft 70 kts 41°
2026-05-05 19:46 27.97653 34.39099 180 ft 135 kts 43°
2026-05-05 19:47 27.98429 34.39930 428 ft 163 kts 40°
2026-05-05 19:47 27.99240 34.40774 1171 ft 158 kts 28°
2026-05-05 19:47 28.00201 34.41279 1939 ft 152 kts 17°
2026-05-05 19:47 28.01212 34.41748 2456 ft 167 kts 21°
2026-05-05 19:48 28.02325 34.42326 2950 ft 184 kts 22°
2026-05-05 19:48 28.03521 34.42974 3447 ft 201 kts 24°
2026-05-05 19:48 28.04844 34.43712 3869 ft 225 kts 24°
2026-05-05 19:48 28.06296 34.44531 4396 ft 245 kts 25°
2026-05-05 19:49 28.07875 34.45429 4984 ft 262 kts 25°
2026-05-05 19:49 28.09533 34.46375 5804 ft 270 kts 25°
2026-05-05 19:49 28.11203 34.47331 6698 ft 274 kts 24°
2026-05-05 19:49 28.12982 34.48125 7535 ft 277 kts 11°
2026-05-05 19:50 28.14873 34.48435 8347 ft 280 kts 359°
2026-05-05 19:50 28.16830 34.48493 9166 ft 285 kts 356°
2026-05-05 19:50 28.18820 34.48512 9975 ft 289 kts 355°
2026-05-05 19:50 28.20821 34.48304 10628 ft 292 kts 339°
2026-05-05 19:51 28.22674 34.47300 11056 ft 301 kts 319°
2026-05-05 19:51 28.24127 34.45546 11442 ft 312 kts 299°
2026-05-05 19:51 28.25107 34.43344 11984 ft 322 kts 293°
2026-05-05 19:51 28.26075 34.41044 12746 ft 325 kts 293°
2026-05-05 19:52 28.27054 34.38729 13512 ft 328 kts 293°
2026-05-05 19:52 28.28043 34.36397 14260 ft 331 kts 292°
2026-05-05 19:52 28.29040 34.34046 14987 ft 334 kts 292°
2026-05-05 19:52 28.30049 34.31665 15670 ft 338 kts 292°
2026-05-05 19:53 28.31070 34.29258 16309 ft 343 kts 292°
2026-05-05 19:53 28.32092 34.26844 16970 ft 346 kts 292°
2026-05-05 19:53 28.33137 34.24378 17620 ft 350 kts 292°
2026-05-05 19:53 28.34189 34.21890 18292 ft 353 kts 292°
2026-05-05 19:54 28.35248 34.19382 18948 ft 356 kts 292°
2026-05-05 19:54 28.36333 34.16817 19600 ft 359 kts 292°
2026-05-05 19:54 28.37409 34.14269 20249 ft 361 kts 292°
2026-05-05 19:54 28.38489 34.11706 20876 ft 363 kts 292°
2026-05-05 19:55 28.39582 34.09115 21480 ft 366 kts 292°
2026-05-05 19:55 28.40682 34.06505 22054 ft 369 kts 292°
2026-05-05 19:55 28.41794 34.03875 22647 ft 372 kts 292°
2026-05-05 19:55 28.42913 34.01224 23208 ft 375 kts 292°
2026-05-05 19:56 28.44039 33.98558 23725 ft 378 kts 292°
2026-05-05 19:56 28.45173 33.95862 24245 ft 381 kts 292°
2026-05-05 19:56 28.46311 33.93158 24805 ft 382 kts 291°
2026-05-05 19:56 28.47453 33.90444 25317 ft 384 kts 291°
2026-05-05 19:57 28.48601 33.87711 25791 ft 387 kts 291°
2026-05-05 19:57 28.49759 33.84954 26232 ft 390 kts 291°
2026-05-05 19:57 28.50929 33.82156 26513 ft 396 kts 291°
2026-05-05 19:57 28.52115 33.79319 26855 ft 400 kts 291°
2026-05-05 19:58 28.53325 33.76429 27274 ft 402 kts 291°
2026-05-05 19:58 28.54520 33.73571 27768 ft 402 kts 291°
2026-05-05 19:58 28.55717 33.70711 28323 ft 400 kts 292°
2026-05-05 19:58 28.56902 33.67870 28827 ft 400 kts 292°
2026-05-05 19:59 28.58091 33.65024 29248 ft 401 kts 291°
2026-05-05 19:59 28.59283 33.62164 29644 ft 402 kts 292°
2026-05-05 19:59 28.60484 33.59300 29995 ft 404 kts 292°
2026-05-05 20:00 28.63233 33.53692 30074 ft 408 kts 298°
2026-05-05 20:00 28.66506 33.48392 30074 ft 410 kts 303°
2026-05-05 20:01 28.70072 33.43328 30078 ft 410 kts 304°
2026-05-05 20:01 28.73644 33.38280 30072 ft 409 kts 304°
2026-05-05 20:02 28.77203 33.33246 30072 ft 409 kts 303°
2026-05-05 20:02 28.80776 33.28187 30064 ft 409 kts 304°
2026-05-05 20:03 28.84367 33.23096 30059 ft 409 kts 304°
2026-05-05 20:03 28.87924 33.18047 30026 ft 410 kts 304°
2026-05-05 20:03 28.89704 33.15517 29700 ft 409 kts 304°
2026-05-05 20:04 28.91480 33.12991 29359 ft 406 kts 304°
2026-05-05 20:04 28.93228 33.10505 29023 ft 404 kts 304°
2026-05-05 20:04 28.94981 33.08011 28692 ft 403 kts 304°
2026-05-05 20:04 28.96734 33.05514 28354 ft 402 kts 304°
2026-05-05 20:05 28.98486 33.03013 28017 ft 403 kts 304°
2026-05-05 20:05 29.00234 33.00521 27681 ft 404 kts 304°
2026-05-05 20:05 29.02000 32.97999 27340 ft 405 kts 304°
2026-05-05 20:05 29.03756 32.95492 27004 ft 405 kts 304°
2026-05-05 20:06 29.05500 32.93001 26669 ft 404 kts 304°
2026-05-05 20:06 29.07261 32.90483 26330 ft 402 kts 304°
2026-05-05 20:06 29.08990 32.88014 25995 ft 400 kts 304°
2026-05-05 20:06 29.10733 32.85517 25657 ft 398 kts 304°
2026-05-05 20:07 29.12450 32.83060 25323 ft 397 kts 304°
2026-05-05 20:07 29.14172 32.80591 24986 ft 395 kts 304°
2026-05-05 20:07 29.15887 32.78130 24650 ft 394 kts 304°
2026-05-05 20:07 29.17593 32.75681 24316 ft 392 kts 304°
2026-05-05 20:08 29.19265 32.73277 23986 ft 390 kts 304°
2026-05-05 20:08 29.20954 32.70849 23656 ft 389 kts 304°
2026-05-05 20:08 29.22629 32.68440 23327 ft 386 kts 304°
2026-05-05 20:08 29.24299 32.66037 22997 ft 385 kts 305°
2026-05-05 20:09 29.25952 32.63656 22669 ft 382 kts 305°
2026-05-05 20:09 29.27604 32.61277 22339 ft 380 kts 305°
2026-05-05 20:09 29.29241 32.58914 22013 ft 378 kts 305°
2026-05-05 20:09 29.30862 32.56564 21687 ft 376 kts 305°
2026-05-05 20:10 29.32475 32.54221 21359 ft 374 kts 304°
2026-05-05 20:10 29.34073 32.51897 21037 ft 372 kts 304°
2026-05-05 20:10 29.35662 32.49581 20717 ft 370 kts 305°
2026-05-05 20:10 29.37245 32.47273 20399 ft 368 kts 304°
2026-05-05 20:11 29.38824 32.44973 20080 ft 366 kts 304°
2026-05-05 20:11 29.40392 32.42682 19755 ft 365 kts 305°
2026-05-05 20:11 29.41949 32.40409 19442 ft 363 kts 305°
2026-05-05 20:11 29.43509 32.38126 19129 ft 361 kts 305°
2026-05-05 20:12 29.45058 32.35862 18814 ft 360 kts 305°
2026-05-05 20:12 29.46604 32.33601 18500 ft 358 kts 304°
2026-05-05 20:12 29.48134 32.31361 18193 ft 356 kts 304°
2026-05-05 20:12 29.49657 32.29130 17891 ft 354 kts 304°
2026-05-05 20:13 29.51152 32.26941 17577 ft 352 kts 304°
2026-05-05 20:13 29.52658 32.24732 17274 ft 350 kts 304°
2026-05-05 20:13 29.54150 32.22540 16966 ft 348 kts 304°
2026-05-05 20:13 29.55647 32.20343 16651 ft 347 kts 304°
2026-05-05 20:14 29.57121 32.18173 16341 ft 345 kts 304°
2026-05-05 20:14 29.58590 32.16002 16019 ft 343 kts 304°
2026-05-05 20:14 29.60052 32.13840 15711 ft 342 kts 304°
2026-05-05 20:14 29.61500 32.11693 15399 ft 340 kts 304°
2026-05-05 20:15 29.62939 32.09554 15088 ft 338 kts 304°
2026-05-05 20:15 29.64366 32.07429 14774 ft 336 kts 305°
2026-05-05 20:15 29.65788 32.05303 14459 ft 335 kts 305°
2026-05-05 20:15 29.67195 32.03192 14146 ft 333 kts 304°
2026-05-05 20:16 29.68595 32.01090 13836 ft 332 kts 304°
2026-05-05 20:16 29.69992 31.98986 13522 ft 330 kts 304°
2026-05-05 20:16 29.71382 31.96895 13215 ft 329 kts 304°
2026-05-05 20:16 29.72779 31.94785 12908 ft 328 kts 305°
2026-05-05 20:17 29.74155 31.92699 12676 ft 327 kts 305°
2026-05-05 20:17 29.75524 31.90613 12487 ft 326 kts 304°
2026-05-05 20:17 29.76888 31.88528 12315 ft 326 kts 304°
2026-05-05 20:17 29.77904 31.86228 12108 ft 324 kts 285°
2026-05-05 20:18 29.78263 31.83681 11923 ft 324 kts 276°
2026-05-05 20:18 29.78449 31.81132 11736 ft 323 kts 275°
2026-05-05 20:18 29.78606 31.78562 11543 ft 323 kts 275°
2026-05-05 20:18 29.78759 31.75985 11249 ft 322 kts 275°
2026-05-05 20:19 29.78912 31.73422 10890 ft 320 kts 275°
2026-05-05 20:19 29.79064 31.70872 10524 ft 320 kts 275°
2026-05-05 20:19 29.79213 31.68333 10160 ft 315 kts 275°
2026-05-05 20:19 29.79361 31.65853 9859 ft 306 kts 275°
2026-05-05 20:20 29.79505 31.63467 9773 ft 291 kts 275°
2026-05-05 20:20 29.79641 31.61205 9712 ft 276 kts 275°
2026-05-05 20:20 29.79770 31.59055 9647 ft 267 kts 275°
2026-05-05 20:20 29.79897 31.56918 9314 ft 269 kts 275°
2026-05-05 20:21 29.80021 31.54790 8949 ft 267 kts 275°
2026-05-05 20:21 29.80141 31.52670 8577 ft 266 kts 275°
2026-05-05 20:21 29.80257 31.50568 8213 ft 265 kts 275°
2026-05-05 20:21 29.80371 31.48449 7844 ft 265 kts 275°
2026-05-05 20:22 29.80603 31.46356 7460 ft 264 kts 289°
2026-05-05 20:22 29.81517 31.44566 7097 ft 263 kts 310°
2026-05-05 20:22 29.82767 31.43017 6728 ft 263 kts 314°
2026-05-05 20:22 29.84066 31.41521 6339 ft 262 kts 315°
2026-05-05 20:23 29.85349 31.40050 5971 ft 261 kts 315°
2026-05-05 20:23 29.86615 31.38589 5608 ft 259 kts 315°
2026-05-05 20:23 29.87893 31.37102 5230 ft 258 kts 315°
2026-05-05 20:23 29.89134 31.35647 4858 ft 257 kts 315°
2026-05-05 20:24 29.90385 31.34166 4482 ft 256 kts 315°
2026-05-05 20:24 29.91609 31.32703 4113 ft 254 kts 315°
2026-05-05 20:24 29.92837 31.31224 3737 ft 253 kts 315°
2026-05-05 20:24 29.94046 31.29756 3368 ft 252 kts 315°
2026-05-05 20:25 29.95264 31.28281 2987 ft 251 kts 317°
2026-05-05 20:25 29.96708 31.27221 2607 ft 247 kts 344°
2026-05-05 20:25 29.98367 31.27151 2490 ft 234 kts
2026-05-05 20:25 29.99902 31.27567 2483 ft 219 kts 14°
2026-05-05 20:26 30.01221 31.28334 2467 ft 208 kts 36°
2026-05-05 20:26 30.02228 31.29467 2467 ft 195 kts 44°
2026-05-05 20:26 30.03073 31.30600 2463 ft 176 kts 45°
2026-05-05 20:26 30.03821 31.31629 2248 ft 158 kts 45°
2026-05-05 20:27 30.04502 31.32552 2002 ft 145 kts 44°
2026-05-05 20:27 30.05130 31.33393 1778 ft 130 kts 43°
2026-05-05 20:27 30.05709 31.34160 1611 ft 127 kts 43°
2026-05-05 20:27 30.06298 31.34941 1457 ft 127 kts 43°
2026-05-05 20:28 30.06880 31.35712 1302 ft 127 kts 43°
2026-05-05 20:28 30.07450 31.36473 1144 ft 127 kts 43°
2026-05-05 20:28 30.08027 31.37242 976 ft 126 kts 44°
2026-05-05 20:28 30.08605 31.38010 808 ft 126 kts 44°
2026-05-05 20:29 30.09173 31.38777 634 ft 126 kts 45°
2026-05-05 20:29 30.09740 31.39539 462 ft 125 kts 45°
2026-05-05 20:29 30.10304 31.40304 386 ft 118 kts 46°
2026-05-05 20:29 30.10774 31.40885 385 ft 74 kts 49°
2026-05-05 20:30 30.10998 31.41192 385 ft 27 kts 51°
2026-05-05 20:30 30.11132 31.41363 385 ft 28 kts 46°
2026-05-05 20:30 30.11273 31.41513 385 ft 27 kts 35°
2026-05-05 20:30 30.11438 31.41604 385 ft 26 kts 16°
2026-05-05 20:31 30.11549 31.41534 385 ft 23 kts 251°
2026-05-05 20:31 30.11449 31.41392 385 ft 23 kts 227°
2026-05-05 20:31 30.11342 31.41250 385 ft 23 kts 230°
2026-05-05 20:31 30.11237 31.41109 385 ft 23 kts 228°
2026-05-05 20:32 30.11131 31.40969 385 ft 23 kts 229°
2026-05-05 20:32 30.11022 31.40828 385 ft 23 kts 229°
2026-05-05 20:32 30.10918 31.40684 385 ft 23 kts 230°
2026-05-05 20:32 30.10809 31.40540 385 ft 23 kts 227°
2026-05-05 20:33 30.10703 31.40397 385 ft 23 kts 238°
2026-05-05 20:33 30.10687 31.40224 385 ft 22 kts 237°
2026-05-05 20:33 30.10585 31.40090 385 ft 22 kts 229°
2026-05-05 20:33 30.10489 31.39954 385 ft 21 kts 246°
2026-05-05 20:34 30.10570 31.39843 385 ft 20 kts 348°
2026-05-05 20:34 30.10710 31.39803 385 ft 20 kts 345°
2026-05-05 20:34 30.10812 31.39758 385 ft 13 kts 306°
2026-05-05 20:34 30.10811 31.39690 385 ft 3 kts 251°
2026-05-05 20:35 30.10806 31.39675 385 ft 0 kts 253°